Location: Mesa
(33.4220°N, 111.8220°W)
Time: 21:01:42
(UTC-07:00)

Hubble Space Telescope - Pass Details

Date: 23 November 2019
Orbit: 536 x 540 km, 28.5° (Epoch: 11 December)

Event Time Altitude Azimuth Distance (km) Brightness Sun altitude
Rises 18:16:14 0° 256° (WSW) 2,668 6.5 -11.6°
Reaches altitude 10° 18:18:34 10° 249° (WSW) 1,778 5.0 -12.1°
Maximum altitude 18:22:27 41° 178° (S) 776 1.7 -12.8°
Enters shadow 18:25:30 15° 112° (ESE) 1,481 2.5 -13.4°
